www.pogodaiklimat.ru
ПОГОДА в Минчукуре

Архив погоды в Минчукуре (Кашкадарьинская область, Узбекистан)

Время
и дата
15:50 14.05
16:10 14.05
16:20 14.05
16:40 14.05
16:50 14.05
17:00 14.05
17:10 14.05
17:20 14.05
17:40 14.05
17:50 14.05
18:00 14.05
18:10 14.05
18:20 14.05
18:30 14.05
18:50 14.05
19:00 14.05
19:20 14.05
19:30 14.05
19:40 14.05
20:00 14.05
20:20 14.05
20:40 14.05
20:50 14.05
21:00 14.05
23:00 14.05
23:10 14.05
23:20 14.05
23:30 14.05
23:50 14.05
00:00 15.05
02:40 17.05
02:50 17.05
03:00 17.05
03:20 17.05
03:30 17.05
03:40 17.05
03:50 17.05
04:00 17.05
04:10 17.05
04:20 17.05
04:30 17.05
04:40 17.05
04:50 17.05
05:00 17.05
05:10 17.05
05:20 17.05
05:30 17.05
05:40 17.05
05:50 17.05
06:00 17.05
06:10 17.05
06:30 17.05
06:40 17.05
06:50 17.05
07:00 17.05
07:10 17.05
07:20 17.05
07:30 17.05
07:40 17.05
07:50 17.05
08:00 17.05
08:20 17.05
08:30 17.05
08:40 17.05
08:50 17.05
09:00 17.05
09:20 17.05
09:30 17.05
09:40 17.05
09:50 17.05
10:00 17.05
10:10 17.05
10:20 17.05
10:40 17.05
10:50 17.05
11:00 17.05
11:10 17.05
11:20 17.05
11:30 17.05
11:40 17.05
11:50 17.05
12:00 17.05
12:10 17.05
12:20 17.05
12:30 17.05
12:40 17.05
12:50 17.05
13:10 17.05
13:20 17.05
13:30 17.05
13:50 17.05
14:00 17.05
14:10 17.05
14:20 17.05
14:30 17.05
14:40 17.05
14:50 17.05
15:00 17.05
15:10 17.05
15:20 17.05
15:30 17.05
15:40 17.05
16:00 17.05
16:10 17.05
16:20 17.05
16:40 17.05
16:50 17.05
09:00 22.05
09:10 22.05
09:20 22.05
09:30 22.05
09:40 22.05
09:50 22.05
10:00 22.05
10:10 22.05
10:20 22.05
10:30 22.05
10:40 22.05
10:50 22.05
11:00 22.05
11:10 22.05
11:20 22.05
11:30 22.05
11:40 22.05
11:50 22.05
12:00 22.05
12:10 22.05
12:20 22.05
12:30 22.05
12:40 22.05
12:50 22.05
13:00 22.05
13:10 22.05
13:20 22.05
13:30 22.05
13:40 22.05
13:50 22.05
14:00 22.05
14:10 22.05
14:20 22.05
14:30 22.05
14:40 22.05
14:50 22.05
15:00 22.05
Ветер
(напр.,м/с)
Видимость Явления Солнечная радиация
(Вт/м2)
Т
(С)
Тd
(С)
f
(%)
Тe
(С)
Тes
(С)
Комфортность P
(гПа)
Po
(гПа)
Тmin
(С)
Tmax
(С)
R
(мм)
Ю 3.9
{7.1}
+23.4 -1.5 19 +22 +22 комфорт 1024.1 791.0 +23.7 +23.4
ЮЗ 3.0
{6.0}
+23.9 +3.0 25 +23 +23 комфорт 1024.1 791.0 +23.9 +23.7
Ю 3.3
{5.7}
+23.8 -0.8 20 +23 +23 комфорт 1024.0 790.9 +24.0 +23.7
Ю 2.8
{4.6}
+23.4 +0.1 21 +22 +22 комфорт 1024.0 790.9 +24.0 +23.4
Ю 2.8
{5.3}
+23.4 -2.6 17 +22 +22 комфорт 1024.0 790.9 +23.6 +23.4
Ю 3.3
{6.1}
+23.3 -0.3 21 +22 +22 комфорт 1024.0 790.9 +23.4 +23.3
ЮЗ 3.6
{6.8}
+23.4 -0.9 20 +22 +22 комфорт 1024.0 790.9 +23.6 +23.3
ЮЗ 3.9
{5.9}
+23.2 -0.6 21 +22 +22 комфорт 1024.0 790.9 +23.4 +23.2
ЮЗ 4.0
{6.5}
+22.9 +0.3 22 +22 +22 комфорт 1024.0 790.9 +23.1 +22.9
ЮЗ 3.7
{6.2}
+22.9 -0.1 22 +22 +22 комфорт 1024.0 790.9 +23.0 +22.9
ЮЗ 3.1
{5.4}
+22.7 +1.4 25 +22 +22 комфорт 1024.1 791.0 +22.9 +22.7
ЮЗ 3.1
{5.6}
+22.4 +1.8 26 +22 +22 комфорт 1024.1 791.0 +22.7 +22.4
Ю 3.0
{5.0}
+22.1 +0.7 24 +22 +22 комфорт 1024.2 791.1 +22.4 +22.1
ЮЗ 2.4
{4.5}
+21.7 +1.3 26 +21 +21 комфорт 1024.2 791.1 +22.1 +21.7
З 1.1
{2.1}
+20.5 +0.1 26 +22 +22 комфорт 1024.4 791.2 +21.3 +20.5
З 1.2
{2.1}
+19.5 +0.6 28 +21 +21 комфорт 1024.5 791.3 +20.5 +19.5
СЗ 2.2
{2.8}
+17.8 +1.4 33 +18 +18 1024.6 791.4 +18.7 +17.8
СЗ 2.2
{2.8}
+17.2 +0.7 33 +18 +18 1024.7 791.5 +17.8 +17.3
СЗ 1.9
{2.5}
+17.3 -0.3 30 +18 +18 1024.7 791.5 +17.3 +17.2
СЗ 1.0
{1.4}
+17.7 -1.3 28 +19 +19 1024.7 791.5 +17.7 +17.1
СВ 2.1
{3.1}
+17.4 -1.7 27 +18 +18 1024.9 791.6 +17.6 +17.3
СВ 1.6
{3.1}
+17.8 -0.2 30 +19 +19 1024.9 791.6 +18.2 +17.6
СЗ 2.8
{4.4}
+17.2 -0.9 29 +17 +17 1025.0 791.7 +17.8 +17.2
СЗ 2.3
{3.3}
+17.1 -0.2 31 +17 +17 1025.0 791.7 +17.3 +17.0
С 3.3
{3.8}
+16.7 -0.3 32 +16 +16 1024.5 791.3 +16.7 +16.6
С 3.3
{4.0}
+16.8 +0.2 33 +17 +17 1024.4 791.2 +16.9 +16.7
С 3.0
{3.6}
+17.2 -1.4 28 +17 +17 1024.2 791.1 +17.2 +16.6
С 3.1
{3.8}
+17.4 -1.3 28 +17 +17 1024.1 791.0 +17.6 +17.2
С 3.5
{4.2}
+17.1 -1.5 28 +17 +17 1024.0 790.9 +17.8 +17.1
С 3.5
{4.3}
+17.3 -1.6 28 +17 +17 1023.9 790.8 +17.3 +17.1
С 0.7
{1.2}
+11.3 +11.3 100 +11 +11 1023.3 790.3 +11.3 +11.3
С 0.7
{1.5}
+11.5 +11.5 100 +12 +12 1023.3 790.3 +11.6 +11.2
СЗ 0.5
{1.0}
+11.4 +11.4 100 +12 +12 1023.4 790.4 +11.6 +11.4
С 0.8
{1.5}
+10.8 +10.8 100 +11 +11 1023.5 790.5 +11.0 +10.8
СВ 1.2
{2.0}
+10.9 +10.9 100 +10 +10 1023.5 790.5 +11.0 +10.8
В 1.9
{2.8}
+11.4 +11.4 100 +10 +10 1023.4 790.4 +11.4 +10.9
СВ 2.2
{3.2}
+11.2 +11.2 100 +10 +10 1023.1 790.2 +11.5 +11.1
СВ 1.9
{2.5}
+10.8 +10.8 100 +9 +9 1023.1 790.2 +11.2 +10.8
С 2.2
{2.8}
+10.4 +10.4 100 +9 +9 1023.1 790.2 +10.8 +10.4
С 3.1
{3.9}
+10.7 +10.7 100 +8 +8 1023.0 790.1 +10.7 +10.4
С 2.8
{3.7}
+10.9 +10.9 100 +9 +9 1023.0 790.1 +11.0 +10.7
С 3.0
{4.3}
+11.0 +11.0 100 +9 +9 1023.0 790.1 +11.0 +10.9
СВ 2.6
{3.6}
+11.0 +11.0 100 +9 +9 1022.9 790.0 +11.2 +11.0
С 2.6
{3.4}
+11.0 +11.0 100 +9 +9 1022.9 790.0 +11.3 +10.8
С 3.0
{4.1}
+11.3 +11.1 99 +9 +9 1022.8 789.9 +11.2 +11.0
С 2.8
{3.7}
+11.2 +11.0 99 +9 +9 1022.8 789.9 +11.3 +11.0
С 2.6
{3.8}
+11.4 +10.9 97 +10 +10 1022.9 790.0 +11.4 +11.2
С 2.7
{3.6}
+11.4 +11.0 97 +10 +10 1022.9 790.0 +11.5 +11.4
С 2.7
{3.4}
+11.6 +10.6 94 +10 +10 1022.9 790.0 +11.6 +11.1
С 2.6
{3.2}
+11.8 +10.7 93 +10 +10 1023.0 790.1 +11.8 +11.6
С 2.3
{2.8}
+11.6 +10.5 93 +10 +10 1023.0 790.1 +11.8 +11.5
С 1.6
{2.2}
+13.0 +11.2 88 +12 +12 1023.1 790.2 +13.0 +12.1
С 1.6
{2.1}
+13.9 +11.2 84 +14 +14 1023.1 790.2 +13.9 +13.0
СЗ 0.7
{1.5}
+14.6 +10.2 74 +15 +15 1023.1 790.2 +14.6 +13.9
Ю 0.8
{1.9}
+15.2 +10.4 73 +16 +16 1023.1 790.2 +15.2 +14.6
Ю 1.2
{2.2}
+15.3 +11.2 76 +16 +16 1023.1 790.2 +15.3 +15.2
ЮЗ 1.3
{2.7}
+15.5 +10.7 74 +16 +16 1023.3 790.3 +15.5 +15.3
Ю 1.5
{2.9}
+15.3 +10.3 72 +15 +15 1023.4 790.4 +15.5 +15.3
Ю 1.6
{3.2}
+15.4 +10.8 74 +16 +16 1023.4 790.4 +15.4 +15.3
ЮВ 1.8
{3.5}
+15.4 +10.7 73 +15 +15 1023.5 790.5 +15.4 +15.3
Ю 1.5
{3.5}
+15.5 +10.8 73 +16 +16 1023.4 790.4 +15.6 +15.4
Ю 2.0
{3.6}
+15.6 +11.4 76 +16 +16 1023.5 790.5 +15.8 +15.6
Ю 2.1
{3.5}
+15.7 +11.9 78 +16 +16 1023.4 790.4 +15.7 +15.5
Ю 1.7
{3.6}
+15.6 +10.7 72 +16 +16 1023.4 790.4 +15.9 +15.6
ЮВ 1.4
{3.0}
+16.3 +11.5 73 +17 +17 1023.1 790.2 +16.3 +15.6
Ю 1.6
{3.7}
+16.6 +10.4 66 +17 +17 1023.1 790.2 +16.7 +16.3
Ю 2.6
{5.0}
+17.0 +11.6 71 +17 +17 1023.1 790.2 +17.0 +16.7
ЮЗ 3.6
{5.4}
+16.7 +11.1 70 +16 +16 1023.3 790.3 +17.0 +16.6
Ю 3.5
{5.7}
+16.9 +11.5 71 +17 +17 1023.3 790.3 +16.9 +16.6
ЮЗ 3.3
{5.2}
+17.1 +11.4 69 +17 +17 1023.3 790.3 +17.1 +16.9
ЮЗ 2.8
{5.7}
+17.6 +12.7 73 +18 +18 1023.3 790.3 +17.5 +17.1
ЮЗ 3.1
{5.3}
+17.3 +10.9 66 +17 +17 1023.1 790.2 +17.6 +17.2
Ю 2.7
{6.2}
+17.6 +10.8 64 +18 +18 1023.1 790.2 +17.7 +17.3
Ю 2.0
{4.7}
+17.5 +10.5 64 +18 +18 1023.0 790.1 +17.4 +17.0
ЮЗ 3.0
{7.5}
+17.6 +12.0 70 +18 +18 1023.0 790.1 +17.8 +17.5
ЮЗ 4.2
{7.3}
+17.7 +11.9 69 +17 +17 1023.0 790.1 +17.7 +17.5
ЮЗ 3.9
{7.0}
+17.8 +10.7 63 +18 +18 1023.1 790.2 +18.0 +17.7
ЮЗ 4.3
{8.0}
+18.0 +10.3 61 +18 +18 1022.9 790.0 +18.1 +17.8
ЮЗ 4.7
{9.7}
+17.8 +12.1 69 +17 +17 1022.9 790.0 +18.0 +17.7
ЮЗ 5.1
{8.7}
+17.4 +13.3 77 +17 +17 1022.8 789.9 +17.8 +17.4
ЮЗ 4.8
{8.4}
+16.8 +11.7 72 +16 +16 1022.8 789.9 +17.4 +16.8
ЮЗ 4.2
{7.2}
+16.7 +11.6 71 +16 +16 1022.8 789.9 +16.8 +16.5
ЮЗ 4.4
{8.8}
+17.5 +13.1 75 +17 +17 1022.6 789.8 +17.7 +16.7
ЮЗ 5.2
{9.4}
+17.1 +14.0 82 +16 +16 1022.8 789.9 +17.6 +17.0
ЮЗ 4.8
{8.9}
+16.8 +12.9 78 +16 +16 1022.8 789.9 +17.3 +16.8
З 4.0
{7.1}
+16.6 +13.2 81 +16 +16 1022.8 789.9 +16.8 +16.5
ЮЗ 2.8
{6.2}
+16.7 +12.5 76 +17 +17 1022.8 789.9 +16.8 +16.4
ЮЗ 3.2
{6.8}
+17.4 +13.7 79 +17 +17 1022.6 789.8 +17.5 +17.1
ЮЗ 4.4
{7.2}
+17.3 +13.4 78 +17 +17 1022.5 789.7 +17.9 +17.3
ЮЗ 4.3
{6.8}
+17.7 +14.0 79 +17 +17 1022.5 789.7 +17.9 +17.3
ЮЗ 3.8
{6.8}
+17.7 +15.4 86 +18 +18 1022.3 789.5 +17.9 +17.2
ЮЗ 4.5
{7.1}
+16.6 +13.4 81 +16 +16 1022.3 789.5 +17.8 +16.6
ЮЗ 2.9
{5.4}
+17.7 +13.2 75 +18 +18 1022.0 789.3 +17.9 +16.6
ЮЗ 2.4
{5.4}
+17.9 +13.9 77 +18 +18 1021.9 789.2 +18.2 +17.6
ЮЗ 3.6
{7.7}
+18.1 +14.7 81 +18 +18 1021.8 789.1 +18.1 +17.8
Ю 2.3
{6.3}
+18.0 +14.7 81 +18 +18 1021.8 789.1 +18.4 +17.8
ЮЗ 3.4
{6.1}
+17.5 +13.8 79 +17 +17 1021.8 789.1 +18.2 +17.6
Ю 2.9
{5.7}
+17.3 +14.5 83 +17 +17 1021.5 788.9 +17.6 +17.3
Ю 2.7
{5.3}
+17.1 +13.8 81 +17 +17 1021.4 788.8 +17.6 +17.1
ЮЗ 3.2
{5.5}
+17.1 +14.1 82 +17 +17 1021.5 788.9 +17.3 +17.0
ЮЗ 3.3
{5.8}
+17.4 +14.2 82 +17 +17 1021.5 788.9 +17.6 +17.0
ЮЗ 2.7
{6.0}
+16.9 +13.7 82 +17 +17 1021.3 788.7 +17.5 +16.9
ЮЗ 2.4
{4.1}
+17.2 +15.4 89 +17 +17 1020.9 788.4 +17.2 +16.7
ЮЗ 3.2
{6.2}
+17.1 +14.7 86 +17 +17 1021.2 788.6 +17.6 +17.1
Ю 2.8
{5.8}
+17.3 +15.2 87 +17 +17 1021.3 788.7 +17.3 +16.9
Ю 2.5
{4.9}
+15.6 +14.7 94 +15 +15 1021.2 788.6 +16.2 +15.6
Ю 1.9
{4.2}
+15.3 +14.4 94 +15 +15 1021.2 788.6 +15.7 +15.3
В 0.5
{1.2}
+17.2 +3.4 40 +19 +19 1025.1 791.8 +17.3 +17.2
СЗ 0.4
{1.3}
+17.2 +5.8 47 +19 +19 1025.1 791.8 +17.2 +17.1
З 1.2
{2.3}
+17.8 +5.0 43 +19 +19 1025.1 791.8 +17.8 +17.2
ЮЗ 0.9
{2.3}
+17.7 +7.2 50 +19 +19 1025.1 791.8 +17.8 +17.6
ЮЗ 1.6
{3.2}
+18.0 +9.3 57 +19 +19 1025.1 791.8 +18.0 +17.7
ЮЗ 1.8
{3.6}
+17.8 +9.6 59 +18 +18 1025.1 791.8 +18.0 +17.7
Ю 2.1
{3.6}
+17.7 +10.5 63 +18 +18 1025.1 791.8 +17.8 +17.4
ЮЗ 2.2
{3.6}
+17.8 +9.8 59 +18 +18 1025.2 791.9 +17.9 +17.7
ЮЗ 2.5
{4.0}
+17.9 +9.7 59 +18 +18 1025.2 791.9 +17.9 +17.8
ЮЗ 2.7
{4.5}
+17.6 +10.7 64 +18 +18 1025.2 791.9 +17.9 +17.6
ЮЗ 2.9
{4.5}
+17.6 +9.5 59 +18 +18 1025.4 792.0 +17.8 +17.6
ЮЗ 3.7
{5.7}
+17.1 +9.3 60 +17 +17 1025.5 792.1 +17.6 +17.1
ЮЗ 3.8
{6.0}
+17.4 +10.3 63 +17 +17 1025.6 792.2 +17.4 +17.1
ЮЗ 4.2
{6.9}
+17.5 +11.9 69 +17 +17 1025.6 792.2 +17.6 +17.3
ЮЗ 4.7
{7.3}
+17.3 +10.9 66 +17 +17 1025.7 792.3 +17.5 +17.3
ЮЗ 4.5
{7.2}
+17.5 +12.7 73 +17 +17 1025.7 792.3 +17.5 +17.2
ЮЗ 4.5
{7.6}
+17.6 +13.4 77 +17 +17 1025.7 792.3 +17.6 +17.5
ЮЗ 4.5
{7.8}
+17.7 +14.6 82 +17 +17 1025.7 792.3 +17.7 +17.4
ЮЗ 4.3
{7.0}
+17.3 +12.6 74 +17 +17 1025.6 792.2 +17.8 +17.3
ЮЗ 3.8
{6.4}
+17.5 +12.8 74 +17 +17 1025.6 792.2 +17.7 +17.3
ЮЗ 4.1
{7.2}
+17.2 +12.5 74 +17 +17 1025.6 792.2 +17.5 +17.2
ЮЗ 3.9
{8.4}
+17.1 +12.4 74 +17 +17 1025.6 792.2 +17.4 +17.1
ЮЗ 3.2
{5.6}
+17.2 +13.0 76 +17 +17 1025.5 792.1 +17.2 +17.0
ЮЗ 3.7
{6.3}
+16.9 +12.6 75 +17 +17 1025.5 792.1 +17.3 +17.0
ЮЗ 4.8
{7.1}
+16.7 +12.6 77 +16 +16 1025.5 792.1 +17.0 +16.7
ЮЗ 4.0
{7.6}
+16.6 +13.0 80 +16 +16 1025.5 792.1 +16.9 +16.5
ЮЗ 2.6
{5.4}
+16.9 +13.2 79 +17 +17 1025.5 792.1 +16.9 +16.6
ЮЗ 1.9
{4.5}
+16.8 +11.1 69 +17 +17 1025.4 792.0 +16.9 +16.7
З 1.3
{2.8}
+17.4 +11.3 67 +18 +18 1025.2 791.9 +17.4 +16.8
ЮЗ 2.0
{3.7}
+18.3 +10.5 60 +19 +19 1025.2 791.9 +18.3 +17.4
ЮЗ 3.5
{7.2}
+18.3 +12.5 69 +19 +19 1025.2 791.9 +18.4 +18.2
ЮЗ 3.7
{6.2}
+17.9 +13.9 78 +18 +18 1025.2 791.9 +18.4 +17.9
ЮЗ 2.2
{4.2}
+18.0 +11.4 65 +18 +18 1025.1 791.8 +18.1 +17.8
ЮЗ 3.0
{4.9}
+17.8 +13.6 76 +18 +18 1025.0 791.7 +18.1 +17.8
ЮЗ 3.5
{5.6}
+17.3 +12.9 76 +17 +17 1024.9 791.6 +17.8 +17.3
ЮЗ 3.0
{4.7}
+17.2 +14.1 82 +17 +17 1024.9 791.6 +17.3 +17.0
ЮЗ 2.7
{5.0}
+17.3 +13.2 77 +17 +17 1024.7 791.5 +17.4 +17.2
Местоположение метеостанции Минчукур (Кашкадарьинская область, Узбекистан): широта 38.64 долгота 66.94 высота над уровнем моря 0 м.
В архиве по умолчанию представлена погода в Минчукуре за последние 1-2 суток. Обновление информации о фактической погоде в базе происходит ежечасно! Архивные данные за месяц целиком и за предыдущие месяцы Вы можете получить, выбрав интересующий диапазон дат из раскрывающегося списка и нажав кнопку "Ввод!".
*Определитесь, кто Вы:
Внимание! Время в таблицах - местное (без учета летнего времени). Для получения всемирного времени необходимо вычесть поправку, которая равна 5 ч.
Смотрите также архив погоды на ближайших метеорологических станциях:
Партнеры нашего сайта:      
Пояснения к столбцам:
  • Ветер - указаны скорость ветра в м/с - средняя за 10 мин, порывы в срок и между сроками (в фигурных скобках) и направление, откуда дует ветер: С - северный,
  • СВ - северо-восточный, В - восточный, ЮВ - юго-восточный, Ю - южный, ЮЗ - юго-западный, З - западный, СЗ - северо-западный.
  • Видимость - горизонтальная дальность видимости в метрах или километрах. При видимости от 1 до 10 км при отсутствии осадков обычно наблюдается дымка, при ухудшении видимости до 1 км и менее - туман. В сухую погоду видимость может ухудшаться дымом, пылью или мглою.
  • Явления - указаны атмосферные явления, наблюдавшиеся в срок или в последний час перед сроком.
  • Солнечная радиация - мощность потока солнечного излучения на поверхность земли и предметов в Вт/м2.
  • T - Температура воздуха - температура, измеренная на высоте 2 м над землей.
  • Td - Температура точки росы - температура, при понижении до которой содержащийся в воздухе водяной пар достигнет насыщения.
  • f - Относительная влажность воздуха - влажноcть воздуха, измеренная на высоте 2 м над землей.
  • Te - Эффективная температура - температура, которую ощущает одетый по сезону человек в тени. Характеристика душности погоды. При расчете учитывается влияние влажности воздуха и скорости ветра на теплоощущения человека.
  • Tes - Эффективная температура на солнце - температура, которую ощущает человек, с поправкой на солнечный нагрев. Характеристика знойности погоды. Зависит от высоты солнца над горизонтом, облачности и скорости ветра. Ночью, в пасмурную погоду, а также при ветре 12 м/с и более поправка равна нулю.
  • P - Атмосферное давление - приведенное к уровню моря атмосферное давление.
  • Po - Атмосферное давление - измеренное на уровне метеостанции атмосферное давление.
  • Tmin - Минимальная температура - минимум температуры воздуха на высоте 2 м над землей.
  • Tmax - Максимальная температура - максимум температуры воздуха на высоте 2 м над землей.
  • R - Количество осадков - Количество выпавших осадков за период времени, мм. При наведении курсора мыши на число - период времени, за который выпало указанное количество осадков.